SCP
0 0 0 0 0 0 0 0 0 0 0 0 0 0 0 0 0 0 0 0 0 -0 -0 -0 0 0 0 0 0 0 0 0 0 0 0 0 0 0 0 0 0 0 0 0
0 0 0 0 0 0 0 0 0 0 0 0 0 0 0 0 0 0 0 0 -0 -0 -0 -0 0 0 0 0 0 0 0 0 0 0 0 0 0 0 0 0 0 -0 0 0
0 0 0 0 0 0 0 0 0 0 0 0 0 0 0 0 0 0 0 -0 -0 -0 -0 0 0 0 0 0 0 0 0 0 0 0 0 0 0 0 0 0 0 0 0 0
0 0 0 0 0 0 0 0 0 0 0 0 0 0 0 0 0 0 0 -0 -0 -0 0 0 0 0 0 0 0 0 0 0 0 0 0 0 0 0 0 0 -0 -0 0 0
0 0 0 0 0 0 0 0 0 0 0 0 0 0 0 0 0 0 0 0 0 0 0 0 0 0 0 0 0 0 0 0 0 0 0 0 0 0 -0 -0 -0 -0 -0 -0
0 0 0 0 0 0 0 0 0 0 0 0 0 0 0 -0 -0 -0 0 0 0 0 0 0 0 0 0 0 0 0 0 0 0 0 0 0 0 -0 -0 -0 -0 -0 -0 -0
0 0 0 0 0 0 0 0 0 0 0 0 0 0 0 0 -0 0 0 0 0 0 0 0 0 0 0 0 0 0 0 0 0 0 -0 -0 -0 -0 -0 0 -0 -0 -0 -0
0 0 0 0 0 0 0 0 0 0 0 0 0 0 0 0 0 0 0 0 0 0 0 0 0 0 0 0 0 0 0 -0 -0 -0 -0 0 -0 -0 -0 -0 -0 -0 -0 -0
0 0 0 0 0 0 0 0 0 0 0 0 0 0 0 0 0 0 0 0 0 0 0 0 0 0 0 0 0 -0 -0 -0 0 -0 0 0 0 0 0 0 0 0 0 0
0 0 0 0 0 0 0 0 0 0 0 0 0 0 0 0 0 0 0 0 0 0 0 0 0 0 0 0 -0 -0 -0 0 0 0 0 0 0 0 0 0 0 0 0 0
0 0 0 0 0 0 0 0 0 0 0 0 0 0 0 0 0 0 0 0 0 0 0 0 0 0 0 0 0 0 0 0 0 0 0 0 0 0 0 0 0 0 0 0
0 0 0 0 0 0 0 0 0 0 0 0 0 0 0 0 0 0 0 0 0 0 0 0 0 0 0 0 0 0 0 0 0 0 0 0 0 0 0 0 0 0 0 0
0 0 0 0 0 0 0 0 0 0 0 0 0 0 0 0 0 -0 0 0 0 0 0 0 0 0 0 0 0 0 0 0 0 0 0 0 0 0 0 0 0 0 0 0
0 0 0 0 0 0 0 0 0 0 0 0 0 0 0 0 0 0 0 0 0 0 0 0 0 0 0 0 0 0 0 0 0 -0 0 0 0 0 0 0 0 0 0 0
0 0 0 0 0 0 0 0 0 0 0 0 0 0 0 0 0 0 0 0 0 0 0 0 0 0 0 0 0 0 0 0 -0 0 0 0 0 0 0 0 0 0 0 0
0 0 0 0 0 0 0 0 0 0 0 0 0 0 0 0 0 0 0 0 -0 0 0 0 0 0 -0 0 -0 -0 -0 0 0 0 0 0 0 0 0 0 0 0 0 0
0 0 0 0 0 0 0 0 0 0 0 0 0 0 -0 0 0 0 0 0 0 0 0 0 0 0 0 -0 0 0 0 0 0 0 0 0 0 0 0 0 0 0 0 0
0 0 0 0 0 0 0 0 0 0 0 0 0 0 -0 0 0 0 0 0 0 0 0 0 0 0 0 0 -0 -0 -0 0 -0 0 0 0 0 0 0 0 0 0 0 0
0 0 0 0 0 0 0 0 0 0 0 0 -0 0 0 0 0 0 0 0 0 0 0 0 0 0 0 -0 0 -0 0 -0 0 0 0 0 0 0 0 0 0 0 0 0
0 0 0 0 0 0 0 0 0 0 0 0 -0 0 0 0 0 0 0 0 0 0 0 0 0 0 0 0 0 0 0 -0 0 0 0 0 0 0 0 0 0 0 0 0
0 0 0 0 0 0 0 0 0 0 0 0 -0 0 -0 -0 -0 -0 0 0 0 0 0 0 0 0 0 0 0 0 0 0 0 0 0 0 0 0 0 0 0 0 0 0
0 0 0 0 0 0 0 0 0 0 0 0 0 0 -0 -0 -0 -0 -0 -0 0 -0 0 0 0 0 0 0 0 0 0 0 0 0 0 0 0 0 0 0 0 0 0 0
0 0 0 0 0 0 0 0 0 0 0 0 0 -0 -0 -0 -0 -0 -0 -0 -0 -0 0 0 0 0 0 0 0 0 0 0 0 0 0 0 0 0 0 0 0 0 0 0
0 0 0 0 0 0 0 0 0 0 0 -0 0 0 -0 -0 0 -0 -0 -0 -0 0 0 0 0 0 0 0 0 0 0 0 0 0 0 0 0 0 0 0 0 0 0 0
0 0 0 0 0 0 0 0 0 0 0 -0 -0 0 -0 0 0 -0 -0 0 -0 -0 0 0 0 0 0 0 0 0 0 0 0 0 0 0 0 0 0 0 0 0 0 0
0 0 0 0 0 0 0 0 0 0 -0 -0 -0 -0 0 0 0 0 -0 -0 -0 -0 0 0 0 0 0 0 0 0 -0 0 0 0 0 0 0 0 0 0 0 0 0 0
0 0 0 0 0 0 0 0 0 0 -0 -0 0 0 0 0 0 0 -0 -0 0 -0 -0 0 0 0 0 0 0 0 0 0 0 0 0 0 0 0 0 0 0 0 0 0
Wind_Speed_500mb
14 16 11 16 20 19 21 29 17 33 30 33 31 26 35 41 52 65 72 73 72 73 80 82 76 71 63 65 56 60 66 65 67 66 63 61 59 56 56 52 51 51 51 53
8 9 13 20 22 21 26 22 21 23 33 19 32 34 48 51 62 68 72 75 78 86 84 78 73 67 61 70 71 68 67 69 68 64 60 59 54 54 56 52 53 54 55 52
6 5 13 21 12 9 5 8 13 19 32 35 27 48 48 53 63 68 73 80 89 86 75 72 68 64 75 76 70 66 68 66 62 60 60 57 54 49 48 49 50 52 52 56
6 5 7 7 6 3 7 16 22 28 19 28 41 47 48 55 58 64 77 85 87 77 74 72 75 78 77 73 69 63 66 63 57 55 55 53 51 50 50 50 47 45 46 49
5 6 17 6 8 7 7 20 23 9 26 38 44 44 48 55 60 68 74 81 77 72 73 80 77 76 73 70 65 60 62 57 54 51 50 49 47 46 45 43 43 46 50 51
6 6 8 5 11 5 7 9 13 18 31 43 38 23 34 73 71 72 73 73 69 77 79 78 76 68 67 67 63 59 55 54 50 46 44 42 41 42 38 38 44 45 45 42
9 11 11 8 14 12 6 11 18 26 36 41 29 41 65 71 75 75 75 70 71 75 76 77 74 64 65 63 61 53 55 48 39 39 35 33 40 33 33 30 27 29 29 28
5 8 9 20 11 9 13 17 24 31 36 39 44 57 63 66 73 76 78 75 75 79 78 75 62 61 61 60 53 50 46 33 34 32 30 32 35 32 29 29 27 25 26 22
14 6 4 24 21 21 29 27 32 31 39 40 48 58 61 67 74 73 74 75 78 77 76 68 59 59 59 54 45 45 32 29 28 23 23 30 31 24 20 20 19 12 9 8
5 6 18 16 21 28 26 24 34 38 41 48 46 53 61 65 70 70 73 76 75 72 73 68 59 55 50 42 44 35 28 26 20 22 26 17 20 19 18 12 5 3 1 3
10 22 22 13 11 14 19 30 35 35 43 52 48 53 56 65 65 67 67 71 68 69 68 61 56 52 51 41 31 24 22 17 21 17 20 21 18 22 14 10 8 10 14 20
9 11 10 15 13 16 27 31 32 38 47 48 47 55 58 61 60 61 66 64 66 63 60 59 53 50 44 37 25 20 15 16 21 18 20 17 17 22 17 19 18 23 32 26
9 12 14 18 21 23 25 29 32 40 46 47 53 59 59 56 57 57 55 59 61 60 54 56 49 45 44 35 28 17 11 12 20 22 17 19 18 17 23 23 25 34 35 31
23 22 20 13 13 22 24 28 32 40 43 46 55 60 59 53 51 53 55 56 58 56 54 51 43 40 37 31 25 13 12 19 20 21 15 20 21 22 24 28 34 37 40 39
23 21 17 19 20 18 23 28 36 42 46 51 57 60 56 55 52 52 52 54 54 53 51 47 42 34 31 28 27 14 12 13 14 15 14 17 19 20 20 24 30 34 38 37
10 7 7 12 13 20 25 32 40 44 45 52 58 60 63 53 49 50 52 53 52 53 49 44 38 31 25 22 18 17 15 15 17 14 13 15 19 17 19 22 27 30 33 36
13 6 5 6 16 23 27 36 40 43 45 51 58 60 50 51 49 49 52 51 48 48 45 40 35 28 21 19 16 16 15 13 13 13 13 14 16 17 18 24 28 28 29 27
12 8 3 10 16 22 30 38 42 40 43 52 59 56 43 43 47 50 53 50 50 49 45 38 31 25 22 18 16 14 10 6 5 4 8 14 14 16 19 23 27 28 29 26
16 9 3 8 17 26 36 39 37 38 44 51 58 50 39 38 42 46 48 48 51 51 48 36 29 28 29 26 18 13 11 8 9 11 12 16 18 21 25 25 26 27 28 28
16 7 1 8 19 28 39 36 34 37 44 51 57 40 39 38 41 44 43 45 46 41 35 31 30 31 33 28 20 17 16 14 12 12 14 16 19 24 27 25 27 27 27 27
14 7 9 15 27 34 40 32 32 39 46 50 52 41 38 36 39 42 43 47 45 35 27 27 31 30 30 23 19 18 20 20 18 16 15 18 24 29 32 28 26 26 26 28
11 8 11 18 28 37 36 30 32 39 46 48 46 36 35 35 38 41 38 41 41 32 26 25 30 30 26 21 21 24 22 18 21 21 20 24 28 32 32 32 34 24 25 29
11 11 13 22 27 39 31 28 33 39 47 46 43 31 31 31 34 40 44 41 37 28 22 22 26 26 21 21 25 26 22 23 30 23 25 26 34 30 32 45 40 30 32 39
17 14 18 23 33 36 29 27 33 39 47 44 33 25 26 30 26 27 31 34 31 25 21 22 24 23 21 23 30 25 25 22 23 26 22 28 33 41 29 41 45 42 45 45
23 24 25 29 34 31 26 28 33 40 45 38 22 19 18 21 26 27 29 29 26 25 22 22 23 23 27 34 31 27 26 27 28 34 31 34 32 38 41 43 54 63 49 55
27 24 27 27 27 23 23 27 33 39 36 27 18 15 15 18 21 21 22 21 22 24 24 25 27 27 28 31 35 35 29 33 37 32 29 32 51 45 45 49 54 65 62 56
17 17 20 23 22 20 22 26 34 33 25 22 17 13 13 16 19 19 17 16 20 23 23 24 27 27 29 31 30 30 34 33 41 45 43 50 53 48 54 55 60 71 70 67
Wind_Direction_500mb
253 253 230 257 260 263 250 273 270 294 296 305 321 317 318 321 320 324 322 322 320 316 313 312 311 309 307 306 305 303 305 304 303 304 306 304 297 284 283 279 275 271 273 273
269 275 243 260 267 273 278 279 264 283 295 342 314 310 321 323 321 322 321 320 318 316 313 311 310 309 306 308 313 312 308 307 305 304 307 304 299 290 287 280 273 274 271 270
261 351 316 276 273 210 265 244 283 288 313 318 311 316 322 316 319 319 319 318 318 316 313 311 310 307 309 313 315 311 310 309 308 305 303 303 302 289 286 284 280 276 270 266
290 303 252 78 94 149 252 284 279 297 306 311 314 315 312 314 316 316 319 318 317 316 313 313 314 316 314 315 314 311 309 311 310 308 304 301 298 291 286 277 275 275 272 271
261 239 300 179 192 194 190 282 300 245 303 311 314 312 309 325 321 316 317 317 314 315 315 319 322 322 319 319 317 312 313 314 312 308 306 303 298 294 289 283 273 276 279 275
167 264 268 114 175 165 142 274 203 270 298 310 320 309 316 325 323 320 319 318 315 320 320 323 324 325 324 323 321 315 320 313 310 307 305 304 304 303 297 286 281 280 278 271
219 246 274 187 156 154 283 307 310 296 295 306 303 306 311 318 322 322 322 321 321 325 320 324 328 328 326 324 323 321 317 314 307 307 309 309 310 307 298 291 279 276 279 278
172 229 266 163 139 203 278 285 300 303 308 306 306 310 315 321 322 324 325 327 332 329 329 331 334 333 328 322 328 332 326 317 311 312 311 306 308 307 300 294 289 293 293 282
203 239 159 195 240 268 287 285 299 303 318 315 308 313 319 322 324 326 327 328 334 333 331 334 339 338 332 330 334 329 326 321 319 319 324 318 311 318 319 299 296 309 305 288
196 205 242 254 279 290 287 296 313 318 317 318 310 317 321 324 326 326 333 332 336 337 334 336 342 342 342 343 335 334 330 329 333 342 335 354 359 345 336 337 331 337 141 134
246 274 278 274 300 300 301 314 318 317 317 315 318 322 325 325 327 333 334 337 339 342 340 343 346 347 346 343 337 345 339 360 354 345 13 20 23 15 22 19 68 87 100 113
229 218 229 276 306 305 308 315 321 316 316 318 324 326 328 327 332 334 335 338 344 346 347 346 349 354 1 0 2 357 10 12 10 35 16 34 27 26 58 72 82 98 100 111
233 265 257 285 299 310 305 321 323 322 316 321 329 331 333 330 335 335 338 343 345 348 348 347 350 360 8 8 6 21 53 7 7 28 35 37 37 58 75 73 93 103 101 99
240 260 280 293 297 312 315 322 325 326 323 328 334 338 336 335 336 341 341 344 347 351 354 352 353 357 6 15 12 36 25 14 25 15 31 38 66 82 88 90 92 98 94 91
244 257 266 287 306 314 324 328 331 330 329 334 339 340 339 342 339 340 343 347 347 351 352 353 354 357 3 13 22 29 15 18 18 12 37 55 75 85 87 95 95 103 105 99
227 238 262 288 313 328 331 332 329 328 331 337 338 339 342 342 340 342 347 348 349 351 354 356 357 356 360 6 6 16 11 8 11 19 45 71 87 86 89 104 109 107 114 122
216 200 244 296 325 326 330 331 326 329 332 337 337 337 333 341 342 345 347 350 352 357 359 358 357 0 1 0 356 354 356 3 23 48 56 83 86 78 84 115 118 120 121 128
212 205 240 314 326 332 335 326 328 330 333 336 338 338 335 343 343 344 348 352 357 1 6 6 8 11 13 6 354 351 349 6 41 38 95 101 98 99 102 117 117 120 121 123
173 180 285 9 358 339 331 327 328 332 334 337 341 342 344 345 345 347 352 359 2 359 5 14 20 23 24 19 19 23 43 65 85 111 126 131 132 121 115 121 118 119 119 126
173 188 251 1 343 334 337 331 332 334 335 339 343 345 343 350 350 352 357 5 6 359 6 18 22 20 18 21 34 52 65 76 89 110 123 137 139 135 135 134 128 124 121 130
190 228 287 316 329 332 334 330 333 335 336 340 346 349 345 348 350 355 1 3 5 4 9 16 16 20 23 32 40 55 72 77 75 90 114 126 134 136 136 141 143 129 124 125
214 273 302 317 325 327 328 329 332 335 336 339 346 349 345 348 350 357 9 2 1 7 13 17 21 23 29 39 68 68 78 94 73 97 110 122 136 135 140 144 154 137 116 115
239 276 308 317 317 324 319 326 332 333 334 338 346 344 340 345 351 351 357 5 5 11 16 24 26 29 38 53 87 71 82 99 88 103 109 120 140 135 140 135 134 144 134 128
258 282 302 304 316 318 315 321 330 331 332 337 343 339 337 341 357 354 358 1 9 17 25 34 35 42 51 72 112 84 75 88 104 106 109 125 127 141 134 126 129 128 133 143
269 284 294 304 313 312 311 321 327 329 333 339 340 340 341 345 346 355 360 6 20 30 45 52 54 68 72 92 90 73 75 97 111 115 95 120 125 142 124 130 121 138 124 128
276 288 301 307 309 312 312 323 326 329 337 346 346 345 348 352 355 0 7 21 40 50 62 68 70 83 91 99 84 73 76 104 100 117 105 122 129 114 132 120 134 126 125 117
297 299 303 308 307 305 315 324 325 328 340 341 336 343 353 0 7 11 21 51 56 61 67 74 84 90 104 98 83 72 87 96 105 102 102 122 127 120 128 116 127 132 121 116
Wind_Speed_850mb
14 16 11 16 20 19 21 29 17 33 30 33 31 26 35 41 52 65 72 73 72 73 80 82 76 71 63 65 56 60 66 65 67 66 63 61 59 56 56 52 51 51 51 53
8 9 13 20 22 21 26 22 21 23 33 19 32 34 48 51 62 68 72 75 78 86 84 78 73 67 61 70 71 68 67 69 68 64 60 59 54 54 56 52 53 54 55 52
6 5 13 21 12 9 5 8 13 19 32 35 27 48 48 53 63 68 73 80 89 86 75 72 68 64 75 76 70 66 68 66 62 60 60 57 54 49 48 49 50 52 52 56
6 5 7 7 6 3 7 16 22 28 19 28 41 47 48 55 58 64 77 85 87 77 74 72 75 78 77 73 69 63 66 63 57 55 55 53 51 50 50 50 47 45 46 49
5 6 17 6 8 7 7 20 23 9 26 38 44 44 48 55 60 68 74 81 77 72 73 80 77 76 73 70 65 60 62 57 54 51 50 49 47 46 45 43 43 46 50 51
6 6 8 5 11 5 7 9 13 18 31 43 38 23 34 73 71 72 73 73 69 77 79 78 76 68 67 67 63 59 55 54 50 46 44 42 41 42 38 38 44 45 45 42
9 11 11 8 14 12 6 11 18 26 36 41 29 41 65 71 75 75 75 70 71 75 76 77 74 64 65 63 61 53 55 48 39 39 35 33 40 33 33 30 27 29 29 28
5 8 9 20 11 9 13 17 24 31 36 39 44 57 63 66 73 76 78 75 75 79 78 75 62 61 61 60 53 50 46 33 34 32 30 32 35 32 29 29 27 25 26 22
14 6 4 24 21 21 29 27 32 31 39 40 48 58 61 67 74 73 74 75 78 77 76 68 59 59 59 54 45 45 32 29 28 23 23 30 31 24 20 20 19 12 9 8
5 6 18 16 21 28 26 24 34 38 41 48 46 53 61 65 70 70 73 76 75 72 73 68 59 55 50 42 44 35 28 26 20 22 26 17 20 19 18 12 5 3 1 3
10 22 22 13 11 14 19 30 35 35 43 52 48 53 56 65 65 67 67 71 68 69 68 61 56 52 51 41 31 24 22 17 21 17 20 21 18 22 14 10 8 10 14 20
9 11 10 15 13 16 27 31 32 38 47 48 47 55 58 61 60 61 66 64 66 63 60 59 53 50 44 37 25 20 15 16 21 18 20 17 17 22 17 19 18 23 32 26
9 12 14 18 21 23 25 29 32 40 46 47 53 59 59 56 57 57 55 59 61 60 54 56 49 45 44 35 28 17 11 12 20 22 17 19 18 17 23 23 25 34 35 31
23 22 20 13 13 22 24 28 32 40 43 46 55 60 59 53 51 53 55 56 58 56 54 51 43 40 37 31 25 13 12 19 20 21 15 20 21 22 24 28 34 37 40 39
23 21 17 19 20 18 23 28 36 42 46 51 57 60 56 55 52 52 52 54 54 53 51 47 42 34 31 28 27 14 12 13 14 15 14 17 19 20 20 24 30 34 38 37
10 7 7 12 13 20 25 32 40 44 45 52 58 60 63 53 49 50 52 53 52 53 49 44 38 31 25 22 18 17 15 15 17 14 13 15 19 17 19 22 27 30 33 36
13 6 5 6 16 23 27 36 40 43 45 51 58 60 50 51 49 49 52 51 48 48 45 40 35 28 21 19 16 16 15 13 13 13 13 14 16 17 18 24 28 28 29 27
12 8 3 10 16 22 30 38 42 40 43 52 59 56 43 43 47 50 53 50 50 49 45 38 31 25 22 18 16 14 10 6 5 4 8 14 14 16 19 23 27 28 29 26
16 9 3 8 17 26 36 39 37 38 44 51 58 50 39 38 42 46 48 48 51 51 48 36 29 28 29 26 18 13 11 8 9 11 12 16 18 21 25 25 26 27 28 28
16 7 1 8 19 28 39 36 34 37 44 51 57 40 39 38 41 44 43 45 46 41 35 31 30 31 33 28 20 17 16 14 12 12 14 16 19 24 27 25 27 27 27 27
14 7 9 15 27 34 40 32 32 39 46 50 52 41 38 36 39 42 43 47 45 35 27 27 31 30 30 23 19 18 20 20 18 16 15 18 24 29 32 28 26 26 26 28
11 8 11 18 28 37 36 30 32 39 46 48 46 36 35 35 38 41 38 41 41 32 26 25 30 30 26 21 21 24 22 18 21 21 20 24 28 32 32 32 34 24 25 29
11 11 13 22 27 39 31 28 33 39 47 46 43 31 31 31 34 40 44 41 37 28 22 22 26 26 21 21 25 26 22 23 30 23 25 26 34 30 32 45 40 30 32 39
17 14 18 23 33 36 29 27 33 39 47 44 33 25 26 30 26 27 31 34 31 25 21 22 24 23 21 23 30 25 25 22 23 26 22 28 33 41 29 41 45 42 45 45
23 24 25 29 34 31 26 28 33 40 45 38 22 19 18 21 26 27 29 29 26 25 22 22 23 23 27 34 31 27 26 27 28 34 31 34 32 38 41 43 54 63 49 55
27 24 27 27 27 23 23 27 33 39 36 27 18 15 15 18 21 21 22 21 22 24 24 25 27 27 28 31 35 35 29 33 37 32 29 32 51 45 45 49 54 65 62 56
17 17 20 23 22 20 22 26 34 33 25 22 17 13 13 16 19 19 17 16 20 23 23 24 27 27 29 31 30 30 34 33 41 45 43 50 53 48 54 55 60 71 70 67
Wind_Direction_850mb
253 253 230 257 260 263 250 273 270 294 296 305 321 317 318 321 320 324 322 322 320 316 313 312 311 309 307 306 305 303 305 304 303 304 306 304 297 284 283 279 275 271 273 273
269 275 243 260 267 273 278 279 264 283 295 342 314 310 321 323 321 322 321 320 318 316 313 311 310 309 306 308 313 312 308 307 305 304 307 304 299 290 287 280 273 274 271 270
261 351 316 276 273 210 265 244 283 288 313 318 311 316 322 316 319 319 319 318 318 316 313 311 310 307 309 313 315 311 310 309 308 305 303 303 302 289 286 284 280 276 270 266
290 303 252 78 94 149 252 284 279 297 306 311 314 315 312 314 316 316 319 318 317 316 313 313 314 316 314 315 314 311 309 311 310 308 304 301 298 291 286 277 275 275 272 271
261 239 300 179 192 194 190 282 300 245 303 311 314 312 309 325 321 316 317 317 314 315 315 319 322 322 319 319 317 312 313 314 312 308 306 303 298 294 289 283 273 276 279 275
167 264 268 114 175 165 142 274 203 270 298 310 320 309 316 325 323 320 319 318 315 320 320 323 324 325 324 323 321 315 320 313 310 307 305 304 304 303 297 286 281 280 278 271
219 246 274 187 156 154 283 307 310 296 295 306 303 306 311 318 322 322 322 321 321 325 320 324 328 328 326 324 323 321 317 314 307 307 309 309 310 307 298 291 279 276 279 278
172 229 266 163 139 203 278 285 300 303 308 306 306 310 315 321 322 324 325 327 332 329 329 331 334 333 328 322 328 332 326 317 311 312 311 306 308 307 300 294 289 293 293 282
203 239 159 195 240 268 287 285 299 303 318 315 308 313 319 322 324 326 327 328 334 333 331 334 339 338 332 330 334 329 326 321 319 319 324 318 311 318 319 299 296 309 305 288
196 205 242 254 279 290 287 296 313 318 317 318 310 317 321 324 326 326 333 332 336 337 334 336 342 342 342 343 335 334 330 329 333 342 335 354 359 345 336 337 331 337 141 134
246 274 278 274 300 300 301 314 318 317 317 315 318 322 325 325 327 333 334 337 339 342 340 343 346 347 346 343 337 345 339 360 354 345 13 20 23 15 22 19 68 87 100 113
229 218 229 276 306 305 308 315 321 316 316 318 324 326 328 327 332 334 335 338 344 346 347 346 349 354 1 0 2 357 10 12 10 35 16 34 27 26 58 72 82 98 100 111
233 265 257 285 299 310 305 321 323 322 316 321 329 331 333 330 335 335 338 343 345 348 348 347 350 360 8 8 6 21 53 7 7 28 35 37 37 58 75 73 93 103 101 99
240 260 280 293 297 312 315 322 325 326 323 328 334 338 336 335 336 341 341 344 347 351 354 352 353 357 6 15 12 36 25 14 25 15 31 38 66 82 88 90 92 98 94 91
244 257 266 287 306 314 324 328 331 330 329 334 339 340 339 342 339 340 343 347 347 351 352 353 354 357 3 13 22 29 15 18 18 12 37 55 75 85 87 95 95 103 105 99
227 238 262 288 313 328 331 332 329 328 331 337 338 339 342 342 340 342 347 348 349 351 354 356 357 356 360 6 6 16 11 8 11 19 45 71 87 86 89 104 109 107 114 122
216 200 244 296 325 326 330 331 326 329 332 337 337 337 333 341 342 345 347 350 352 357 359 358 357 0 1 0 356 354 356 3 23 48 56 83 86 78 84 115 118 120 121 128
212 205 240 314 326 332 335 326 328 330 333 336 338 338 335 343 343 344 348 352 357 1 6 6 8 11 13 6 354 351 349 6 41 38 95 101 98 99 102 117 117 120 121 123
173 180 285 9 358 339 331 327 328 332 334 337 341 342 344 345 345 347 352 359 2 359 5 14 20 23 24 19 19 23 43 65 85 111 126 131 132 121 115 121 118 119 119 126
173 188 251 1 343 334 337 331 332 334 335 339 343 345 343 350 350 352 357 5 6 359 6 18 22 20 18 21 34 52 65 76 89 110 123 137 139 135 135 134 128 124 121 130
190 228 287 316 329 332 334 330 333 335 336 340 346 349 345 348 350 355 1 3 5 4 9 16 16 20 23 32 40 55 72 77 75 90 114 126 134 136 136 141 143 129 124 125
214 273 302 317 325 327 328 329 332 335 336 339 346 349 345 348 350 357 9 2 1 7 13 17 21 23 29 39 68 68 78 94 73 97 110 122 136 135 140 144 154 137 116 115
239 276 308 317 317 324 319 326 332 333 334 338 346 344 340 345 351 351 357 5 5 11 16 24 26 29 38 53 87 71 82 99 88 103 109 120 140 135 140 135 134 144 134 128
258 282 302 304 316 318 315 321 330 331 332 337 343 339 337 341 357 354 358 1 9 17 25 34 35 42 51 72 112 84 75 88 104 106 109 125 127 141 134 126 129 128 133 143
269 284 294 304 313 312 311 321 327 329 333 339 340 340 341 345 346 355 360 6 20 30 45 52 54 68 72 92 90 73 75 97 111 115 95 120 125 142 124 130 121 138 124 128
276 288 301 307 309 312 312 323 326 329 337 346 346 345 348 352 355 0 7 21 40 50 62 68 70 83 91 99 84 73 76 104 100 117 105 122 129 114 132 120 134 126 125 117
297 299 303 308 307 305 315 324 325 328 340 341 336 343 353 0 7 11 21 51 56 61 67 74 84 90 104 98 83 72 87 96 105 102 102 122 127 120 128 116 127 132 121 116